Regional Weather Roundup
Issued by NWS Mobile, AL

Home | Current Version | Previous Version | Text Only | Print | Product List | Glossary Off
Versions: 1 2 3 4 5 6 7 8 9 10 11 12 13 14 15 16 17 18 19 20 21 22 23 24 25 26 27 28 29 30 31 32 33 34 35 36 37 38 39 40 41 42 43 44 45 46 47 48 49 50

000
ASUS44 KMOB 070112
RWRMOB
REGIONAL WEATHER ROUNDUP
NATIONAL WEATHER SERVICE MOBILE AL
700 PM CST FRI MAR 06 2015

NOTE: "FAIR" INDICATES FEW OR NO CLOUDS BELOW 12,000 FEET WITH NO
      SIGNIFICANT WEATHER AND/OR OBSTRUCTIONS TO VISIBILITY.

  * THESE STATIONS ARE PART OF THE UNIVERSITY OF SOUTH ALABAMA
    MESONET AND ARE NOT UNDER NWS OR FAA QUALITY CONTROL.

ALZ061>064-070200-
COASTAL ALABAMA

CITY           SKY/WX    TMP DP  RH WIND       PRES   REMARKS
MOBILE REG APT MOCLDY    46  17  31 N8        30.43R
BROOKLEY FIELD MOCLDY    48  20  32 N10       30.44R
USA CAMPUS*      N/A     46  18  31 CALM      30.43R
DOG RIVER*     NOT AVBL


CITY           SKY/WX    TMP DP  RH WIND       PRES   REMARKS
MOUNT VERNON*    N/A     41  25  52 CALM      30.44R
SARALAND*      NOT AVBL
BAY MINETTE*   NOT AVBL
LOXLEY*          N/A     43  28  56 N6        30.41R
ROBERTSDALE*   NOT AVBL
FAIRHOPE*        N/A     46  21  36 N3        30.41R
ELBERTA*         N/A     46  27  46 N8        30.40R
FOLEY*         NOT AVBL
GRAND BAY*       N/A     45  19  36 N3        30.40R
DAUPHIN ISLND* NOT AVBL
BON SCOUR NWR* NOT AVBL
GULF SHORES    MOCLDY    47  26  42 N3        30.41R

$$

ALZ051>060-070200-
INTERIOR SOUTHWEST AND SOUTH CENTRAL ALABAMA

CITY           SKY/WX    TMP DP  RH WIND       PRES   REMARKS
GREENVILLE     NOT AVBL
EVERGREEN      MOCLDY    44  32  62 CALM      30.42R
CASTLEBERRY*   NOT AVBL
ATMORE*          N/A     43  32  65 VRB7      30.43R
DIXIE*           N/A     41  34  75 CALM      30.38R
ANDALUSIA/OPP  MOCLDY    47  33  58 N5        30.41
ANDALUSIA*       N/A     43  34  70 NW3       30.39S
FLORALA APT    MOCLDY    44  33  65 N3        30.42R
FLORALA*         N/A     46  34  61 NW6       30.37R

$$

FLZ001>006-070200-
WESTERN FLORIDA PANHANDLE

CITY           SKY/WX    TMP DP  RH WIND       PRES   REMARKS
PENSACOLA      MOCLDY    49  29  46 N10G18    30.40R
NAS PENSACOLA  CLOUDY    50  28  42 N8        30.40
MILTON         MOCLDY    45  30  55 N7        30.41
WHTNG S FIELD  MOCLDY    48  30  49 N10       30.41R


CITY           SKY/WX    TMP DP  RH WIND       PRES   REMARKS
WALNUT HILL*   NOT AVBL
JAY*             N/A     45  30  57 CALM      30.42R
DUKE FIELD     MOCLDY    48  33  55 N7        30.39R
CRESTVIEW      CLOUDY    47  33  58 N7        30.41R
VALPARAISO     MOCLDY    48  34  58 N6        30.38R
DESTIN         CLOUDY    52  35  52 N9        30.39R

$$

MSZ076-079-070200-
INTERIOR SOUTHEAST MISSISSIPPI

CITY           SKY/WX    TMP DP  RH WIND       PRES   REMARKS
LEAKESVILLE*   NOT AVBL
AGRICOLA*      NOT AVBL

$$

MARINE OBSERVATIONS

STATION/POSITION TIME  TEMP    WIND        PRES    WAVE
                       AIR SEA DIR/SP/G            HT/PER
                 (UTC) (F)     (DEG/KT/KT) (MB)    (FT/S)
E DAUPHIN ISLAND NOT AVBL
12 S ORANGE BCH  NOT AVBL

$$

SELECTED LOCATIONS ACROSS THE REGION

CITY           SKY/WX    TMP DP  RH WIND       PRES   REMARKS
NEW ORLEANS    MOCLDY    49  26  41 N9        30.44R
GULFPORT       MOCLDY    50  16  25 N6        30.42R
PASCAGOULA AP  MOCLDY    44  24  45 CALM      30.42R
PASCAGOULA*    NOT AVBL
HATTIESBURG    MOCLDY    48  17  29 N5        30.46R
LAUREL         MOCLDY    41  21  45 N6        30.46R
MERIDIAN       CLEAR     38  19  46 N8        30.47R
JACKSON        CLEAR     39  21  48 NW3       30.48R
MONTGOMERY     MOCLDY    46  28  49 N8        30.44R
TROY           MOCLDY    44  35  70 NW6       30.41R
KINSTON*       NOT AVBL
GENEVA*          N/A     46  37  71 CALM      30.42R
ASHFORD*         N/A     43  34  70 NW3       30.39S
DOTHAN         MOCLDY    45  38  76 CALM      30.42R
PANAMA CITY    CLOUDY    46  39  76 N8        30.38R

$$



USA.gov is the U.S. government's official web portal to all federal, state and local government web resources and services.